Regional Weather Roundup
Issued by NWS

Home | Current Version | Previous Version | Text Only | Print | Product List | Glossary Off
Versions: 1 2 3 4 5 6 7 8 9 10 11 12 13 14 15 16 17 18 19 20 21 22 23 24 25 26 27 28 29 30 31 32 33 34 35 36 37 38 39 40 41 42 43 44 45 46 47 48 49 50

537
ASUS44 KLIX 201410
RWRLA
LOUISIANA WEATHER ROUNDUP
NATIONAL WEATHER SERVICE NEW ORLEANS LA
800 AM CST THU NOV 20 2014

NOTE: "FAIR" INDICATES FEW OR NO CLOUDS BELOW 12,000 FEET WITH NO
      SIGNIFICANT WEATHER AND/OR OBSTRUCTIONS TO VISIBILITY.
      SKY/WX - SKY CONDITION AND SIGNIFICANT WEATHER.
      TMP - AIR TEMPERATURE.    DP   - DEWPOINT TEMPERATURE.
      RH  - RELATIVE HUMIDITY.  PRES - PRESSURE.
      HX  - HEAT INDEX.         WCI  - WIND CHILL INDEX.

*  THESE STATIONS ARE NOT NWS OR FAA STATIONS AND ARE NOT UNDER
   NWS QUALITY CONTROL.

LAZ040-048-061>063-065-066-069-201500-
SOUTHEAST LOUISIANA

CITY           SKY/WX    TMP DP  RH WIND       PRES   REMARKS
N.O. AUDUBON     N/A     55  48  77 MISG        N/A
N.O. INTL ARPT MOSUNNY   55  48  77 SE5       30.29R
N.O. LAKEFRONT PTSUNNY   55  47  74 S7        30.30R
N.O. DOWNTOWN* FAIR      54  45  71 S7        30.30R
SLIDELL        MOSUNNY   42  40  92 CALM      30.30R
BATON ROUGE    MOSUNNY   45  42  89 E3        30.28R
BOOTHVILLE     SUNNY     58  50  75 E3        30.32R
BELLE CHASSE   MOSUNNY   54  47  77 SE3       30.30R
BOGALUSA*        N/A     41  37  86 CALM      30.31R
NEW ROADS*     FAIR      46  43  89 E3        30.27R
GONZALES*      PTSUNNY   47  47  99 CALM      30.28R
HAMMOND*       SUNNY     46  41  81 CALM      30.31R
HOUMA*         SUNNY     48  46  93 CALM      30.29R
PORT FOURCHON* SUNNY     59  50  72 CALM      30.33R

$$

LAZ041-044-053-054-201500-
SOUTHWEST LOUISIANA

CITY           SKY/WX    TMP DP  RH WIND       PRES   REMARKS
LAKE CHARLES   MOSUNNY   51  50  96 CALM      30.22R
LAFAYETTE      PTSUNNY   52  48  86 CALM      30.26R
PATTERSON      MOSUNNY   52  46  82 CALM      30.30R
SALT POINT       N/A     57  51  80 SE6       30.26R
NEW IBERIA     MOSUNNY   52  48  86 SE7       30.27R
CHENAULT AIRPK MOSUNNY   48  48 100 CALM      30.23R

$$

LAZ027-028-201500-
CENTRAL LOUISIANA

CITY           SKY/WX    TMP DP  RH WIND       PRES   REMARKS
FORT POLK      SUNNY     47  46  97 SE2       30.22R
ALEXANDRIA INT PTSUNNY   47  45  93 SE7       30.23R
ALEXANDRIA     MOSUNNY   43  40  89 CALM      30.25R

$$

LAZ001-002-201500-
NORTHWEST LOUISIANA

CITY           SKY/WX    TMP DP  RH WIND       PRES   REMARKS
SHREVEPORT     CLOUDY    47  46  97 SE5       30.20R FOG
BARKSDALE AFB  PTSUNNY   46  46 100 S5        30.21R FOG
DTN SHREVEPORT FOG       46  45  96 SE6       30.20S VSB 1/4

$$

LAZ014-016-201500-
NORTHEAST LOUISIANA

CITY           SKY/WX    TMP DP  RH WIND       PRES   REMARKS
MONROE         PTSUNNY   46  42  86 CALM      30.25R
TALLULAH       MOSUNNY   44  40  85 SE3       30.26R

$$




USA.gov is the U.S. government's official web portal to all federal, state and local government web resources and services.